Wetbulb
45.08 40.70 36.63 38.52 40.04 41.96 39.73 37.59 36.37 39.28 42.69 42.15 39.64 39.42 42.44 42.75 40.61 41.28 41.66 42.73 43.42 45.00 45.69 46.80 47.09 46.98 46.37 46.48 46.98 47.40 46.90 46.86 46.04 45.14 44.61 43.90 44.19 45.38 45.55 46.85 50.94 50.51 50.04 49.50
42.09 38.29 42.73 44.36 44.11 41.74 40.45 38.11 37.13 40.51 43.67 42.05 41.06 40.13 39.69 41.41 40.64 41.79 42.78 42.90 43.80 44.09 45.98 47.19 46.58 44.55 46.18 46.04 46.21 46.35 46.52 46.46 46.18 44.96 44.74 44.98 43.90 44.51 45.74 46.19 46.54 49.62 49.22 47.96
39.28 42.42 45.67 43.64 42.01 40.73 38.59 38.00 37.71 38.43 41.20 41.67 40.27 38.31 39.15 42.15 43.20 43.96 43.69 43.84 44.52 44.80 45.35 46.26 47.26 45.57 44.71 45.57 46.08 46.91 46.67 46.60 46.50 46.36 44.92 44.18 43.85 43.74 43.82 44.19 44.75 46.71 48.38 48.56
41.81 44.25 42.65 42.31 41.22 40.49 36.38 41.96 41.74 40.36 37.52 32.96 39.95 31.03 37.39 39.53 40.19 42.47 43.20 42.60 43.45 45.24 45.92 45.84 45.39 44.81 45.67 46.32 45.82 46.26 47.29 47.02 46.95 46.43 44.20 43.71 45.59 44.87 46.51 46.87 44.26 45.73 47.94 47.80
40.60 40.04 40.22 40.52 40.54 42.40 39.79 43.09 41.85 40.88 36.94 34.80 36.88 32.88 36.60 39.78 39.09 41.17 41.29 43.19 42.81 43.45 44.61 44.45 44.14 45.02 46.16 47.03 46.63 46.91 47.04 47.45 48.41 47.67 46.04 44.57 44.15 45.64 46.43 43.09 43.07 43.31 44.66 46.27
41.85 43.79 42.49 41.42 44.16 44.22 44.80 42.42 40.84 39.98 36.90 29.07 35.54 33.66 33.30 37.25 39.90 41.14 42.71 43.30 44.52 43.46 43.51 45.47 45.95 45.71 46.16 46.81 46.75 47.70 47.27 47.76 48.09 47.68 47.12 44.92 43.91 45.23 43.87 44.21 43.42 43.14 41.95 41.86
42.48 41.69 43.35 45.40 41.26 43.76 41.41 36.71 27.61 26.33 25.69 26.38 37.97 33.91 34.53 39.51 42.44 43.30 43.55 42.94 42.93 43.97 44.95 44.43 44.93 45.24 45.93 45.41 45.88 46.86 46.81 47.88 49.34 47.19 46.82 46.62 45.78 45.61 44.67 44.77 44.61 43.53 41.80 40.67
36.01 33.23 42.36 45.23 41.74 38.91 39.22 37.69 27.63 23.57 22.09 27.04 36.30 30.82 35.89 42.77 43.24 43.60 44.16 44.14 45.85 43.67 44.93 44.55 45.45 45.49 46.02 46.27 46.11 46.79 47.64 46.78 46.91 46.41 46.39 45.29 45.29 44.69 44.47 43.44 42.20 40.13 40.88 39.72
34.40 36.68 44.69 45.20 44.87 43.15 40.03 34.40 39.63 31.17 24.15 24.18 30.99 36.44 40.89 42.08 44.34 44.95 43.49 44.58 44.40 45.00 44.61 44.83 46.23 45.86 44.96 44.78 45.21 45.34 44.98 46.38 46.39 45.02 42.76 40.75 40.20 40.59 38.42 37.88 38.57 39.34 39.21 39.98
41.07 34.94 42.63 44.71 45.44 44.32 41.09 42.57 32.81 30.32 20.87 25.10 29.84 31.25 33.62 39.81 42.48 44.69 42.59 42.25 44.02 43.52 44.51 45.11 45.21 45.48 45.39 44.93 45.45 45.86 45.62 45.63 45.03 41.43 40.35 38.89 37.91 38.17 38.11 37.76 37.19 37.43 38.80 40.81
41.33 38.07 37.06 41.14 40.66 38.36 37.47 35.50 37.52 38.19 31.77 26.44 26.01 30.06 39.24 41.89 43.07 43.51 44.96 43.38 42.49 42.98 43.12 44.04 45.91 47.18 47.56 47.42 46.88 45.57 44.46 43.86 40.23 39.74 39.08 38.02 36.99 37.43 36.70 36.31 36.51 37.25 38.39 39.40
42.23 35.66 29.70 36.34 42.18 43.77 40.87 38.72 37.97 27.40 30.61 29.36 28.19 32.05 44.68 42.81 45.09 43.34 42.52 43.30 43.47 42.85 43.29 44.00 44.89 45.42 44.97 44.57 44.01 44.13 44.03 40.29 39.33 39.45 38.22 37.36 36.12 35.31 35.09 35.56 36.31 36.89 37.20 38.71
40.96 32.61 27.08 31.67 36.64 40.55 38.67 40.32 39.17 36.27 30.16 28.45 22.60 28.45 43.53 44.29 43.08 43.19 41.72 42.53 43.03 42.98 43.07 43.91 44.26 44.69 44.69 43.97 43.66 44.41 43.05 39.44 39.93 38.57 36.94 35.32 34.46 34.06 34.47 35.00 35.58 36.53 36.89 36.85
43.47 37.23 31.95 27.30 31.76 36.88 35.49 38.54 39.27 35.11 23.43 30.81 32.26 33.95 38.50 41.21 41.73 41.88 42.26 42.31 41.86 42.97 43.89 43.82 43.20 43.37 43.98 43.57 43.54 43.51 39.58 40.00 40.29 39.30 35.29 34.43 33.98 33.75 34.36 34.36 35.22 36.26 36.29 35.70
40.84 32.42 35.28 36.82 38.28 38.67 38.69 38.04 38.40 36.00 35.06 29.30 32.77 33.77 37.76 38.82 39.35 41.15 42.44 43.37 43.40 43.27 43.27 43.09 42.66 42.73 42.93 42.84 43.08 40.68 40.35 40.82 40.05 37.29 35.84 35.46 36.58 36.40 35.97 35.36 35.21 37.50 36.86 35.92
41.42 31.70 32.93 34.38 38.14 38.07 35.71 37.98 37.26 36.61 36.77 35.19 35.24 34.46 40.40 42.16 42.49 42.11 42.08 43.06 42.68 42.45 43.17 43.47 43.98 43.71 43.35 43.15 41.83 40.58 40.24 40.40 40.99 40.35 40.68 40.42 39.88 39.32 38.73 38.98 38.92 37.75 35.33 34.21
36.09 30.59 27.40 30.03 33.81 32.77 30.68 33.43 34.73 35.96 37.18 35.31 30.28 34.92 40.55 40.48 41.70 42.19 42.43 42.85 42.51 42.44 42.31 42.44 43.27 43.06 42.11 40.91 40.29 39.13 39.49 40.50 41.70 41.60 40.98 41.05 40.95 40.15 38.93 38.59 37.14 33.60 30.86 29.33
31.55 29.05 28.63 26.52 30.27 25.25 35.61 39.66 39.50 36.43 37.69 38.33 39.29 39.76 41.18 41.84 43.10 43.78 44.20 43.31 41.98 42.47 42.87 43.17 42.77 41.42 40.47 39.60 39.14 39.10 39.52 40.05 39.90 39.87 39.92 38.79 38.61 36.80 34.60 32.45 30.81 28.48 28.06 27.09
39.71 33.12 30.17 26.94 28.60 31.38 35.12 37.89 34.65 32.46 34.56 39.82 39.43 41.17 41.80 42.26 41.87 40.01 43.14 43.93 44.23 43.77 43.40 42.96 40.77 39.82 38.84 37.78 37.95 38.00 37.80 38.18 36.58 32.70 32.36 32.66 32.51 32.28 31.75 28.92 26.96 26.47 25.37 24.90
37.34 31.93 26.90 28.66 26.13 24.19 31.04 37.53 41.96 40.80 30.26 41.12 41.13 40.70 40.58 41.25 36.07 39.02 43.37 43.71 43.15 43.49 41.46 39.27 38.91 38.18 37.22 37.80 36.89 31.75 31.31 31.87 32.17 33.27 33.74 34.04 33.43 31.53 29.02 27.51 26.61 25.44 24.39 24.77
26.76 30.55 23.91 18.85 25.07 26.35 35.85 39.71 42.10 25.46 30.04 38.06 40.88 41.63 41.71 40.70 41.33 43.51 44.09 42.59 41.84 38.69 38.16 38.63 38.05 37.18 37.64 38.88 36.18 31.43 31.12 31.09 33.72 33.92 33.51 32.26 31.60 30.17 28.64 26.37 25.31 24.10 23.88 23.43
28.12 24.89 27.76 27.01 25.84 25.52 40.38 40.70 33.47 36.83 38.25 41.41 41.60 41.26 41.81 42.59 41.64 41.84 41.29 40.66 38.98 37.19 37.34 37.63 36.98 36.71 38.69 34.45 32.50 30.70 29.63 33.03 33.31 32.39 31.34 30.58 30.09 29.47 28.29 25.37 24.45 24.13 22.80 19.46
31.84 32.98 28.81 30.01 29.69 37.49 40.32 41.27 41.42 43.25 41.88 41.18 42.31 43.86 42.32 41.26 40.40 40.59 37.13 36.46 36.49 36.32 35.51 36.44 36.13 36.97 36.31 32.87 32.51 31.14 30.93 32.08 31.15 30.06 29.07 28.55 28.67 27.33 26.12 24.26 23.30 22.79 21.30 17.75
37.44 39.77 33.01 33.62 37.47 39.20 40.73 43.61 44.22 42.83 41.07 44.70 44.79 42.96 43.43 40.24 40.49 37.90 37.77 36.65 36.03 34.84 34.39 35.78 36.87 35.31 33.74 31.91 31.24 30.68 31.13 30.66 29.02 27.74 27.65 27.90 26.36 25.90 24.56 24.71 24.37 22.63 17.16 16.08
39.04 39.94 36.62 36.87 39.81 40.80 41.61 41.88 42.85 44.57 45.18 42.98 43.05 42.25 41.33 40.05 39.14 37.25 35.75 35.65 34.86 34.36 34.74 36.20 36.87 35.84 33.22 31.13 30.37 31.08 30.25 29.13 28.14 27.54 27.34 26.65 25.58 23.65 24.23 24.89 23.59 22.65 21.49 19.80
40.28 38.73 35.61 34.93 40.92 40.05 40.95 43.78 43.66 41.98 40.80 40.19 39.22 38.65 39.15 39.39 37.98 37.26 35.11 34.50 34.33 34.08 36.82 36.14 36.20 32.83 32.11 30.94 30.12 30.37 30.05 28.42 27.41 27.27 26.40 23.21 21.94 20.85 23.02 22.94 23.52 27.19 26.41 27.39
MSLP
1013.74 1014.65 1015.41 1015.39 1015.52 1015.68 1015.73 1015.81 1015.79 1015.14 1014.74 1014.38 1013.97 1013.79 1012.86 1012.68 1012.81 1013.08 1013.55 1013.88 1014.29 1014.48 1014.57 1014.17 1014.22 1014.52 1015.23 1015.68 1015.84 1016.02 1016.20 1016.25 1016.55 1016.90 1017.30 1017.50 1017.53 1017.16 1017.13 1017.11 1016.94 1017.01 1016.92 1016.97
1014.74 1015.18 1015.17 1015.29 1015.53 1015.76 1015.80 1016.08 1016.17 1015.61 1015.02 1015.09 1014.28 1013.81 1012.92 1012.88 1013.18 1013.17 1013.52 1013.95 1014.37 1014.62 1014.59 1014.83 1015.22 1015.37 1015.23 1015.35 1015.63 1015.77 1015.87 1015.98 1016.17 1016.42 1016.39 1016.46 1016.49 1016.38 1016.27 1016.10 1016.37 1016.42 1016.50 1016.42
1015.12 1015.25 1015.07 1015.41 1015.82 1016.07 1016.21 1016.38 1016.44 1016.55 1015.81 1015.08 1014.85 1014.52 1013.89 1013.45 1013.25 1013.57 1013.77 1013.95 1014.13 1014.31 1014.71 1014.95 1015.14 1015.32 1015.51 1015.57 1015.50 1015.47 1015.42 1015.53 1015.62 1015.70 1015.93 1016.10 1016.23 1016.16 1016.05 1015.74 1015.62 1015.42 1015.48 1015.56
1015.47 1015.41 1015.41 1015.69 1016.17 1016.63 1016.56 1016.25 1016.44 1016.63 1016.92 1016.61 1016.14 1015.98 1014.54 1014.02 1014.00 1014.04 1014.13 1014.13 1014.24 1014.58 1014.79 1014.83 1015.09 1015.40 1015.69 1015.40 1015.52 1015.38 1015.20 1015.22 1015.23 1015.37 1015.84 1015.89 1015.73 1015.64 1014.98 1014.56 1014.50 1014.40 1014.29 1014.54
1015.88 1015.73 1015.97 1016.28 1016.67 1016.67 1016.73 1016.41 1016.58 1016.69 1017.40 1017.65 1017.30 1016.77 1015.05 1014.62 1014.51 1014.24 1014.81 1014.93 1015.11 1015.18 1015.07 1015.19 1015.27 1015.29 1015.34 1015.37 1015.36 1015.31 1015.22 1015.38 1015.27 1015.41 1015.48 1015.47 1015.38 1014.83 1014.22 1014.21 1014.00 1013.77 1013.79 1013.61
1016.31 1015.97 1016.33 1016.49 1016.47 1016.74 1016.82 1016.76 1017.07 1017.60 1018.18 1018.89 1018.31 1017.94 1016.38 1015.54 1014.72 1015.01 1015.32 1015.30 1015.24 1015.33 1015.36 1015.30 1015.13 1015.28 1015.53 1015.56 1015.71 1015.56 1015.79 1015.75 1015.53 1015.30 1015.08 1015.12 1014.84 1014.31 1014.06 1013.69 1013.62 1013.56 1013.57 1013.91
1017.57 1017.25 1016.84 1016.68 1016.94 1016.99 1017.49 1017.96 1019.13 1020.02 1020.32 1020.46 1018.65 1017.93 1017.34 1015.81 1014.87 1014.83 1015.08 1015.45 1015.55 1015.50 1015.46 1015.45 1015.45 1015.93 1016.11 1016.12 1016.01 1016.11 1016.24 1016.10 1015.36 1015.29 1014.86 1014.27 1014.05 1013.78 1013.64 1013.29 1013.30 1013.66 1013.93 1014.01
1019.51 1018.44 1017.94 1017.45 1017.70 1018.08 1018.38 1019.28 1020.82 1022.19 1023.00 1022.06 1019.55 1018.40 1017.09 1015.74 1015.15 1015.08 1015.23 1015.53 1015.47 1015.85 1015.91 1015.94 1016.15 1016.49 1016.62 1016.53 1016.41 1016.36 1015.93 1015.88 1015.28 1014.81 1014.32 1013.96 1013.74 1013.56 1013.34 1013.14 1013.03 1013.49 1013.88 1014.41
1020.66 1019.72 1018.71 1018.24 1018.15 1018.30 1018.78 1019.76 1020.77 1022.34 1024.05 1023.81 1021.03 1018.72 1016.99 1015.62 1015.63 1015.81 1015.92 1015.83 1016.12 1016.29 1016.36 1016.38 1016.55 1016.95 1017.16 1017.13 1017.00 1016.81 1016.53 1016.03 1015.19 1014.63 1014.20 1014.14 1013.71 1013.48 1013.57 1013.42 1013.42 1013.90 1014.25 1014.69
1021.34 1021.04 1019.85 1019.03 1018.49 1018.64 1018.94 1020.01 1021.29 1022.98 1024.46 1024.38 1022.02 1019.87 1017.82 1016.41 1016.14 1015.93 1016.56 1016.25 1016.54 1016.74 1016.77 1016.92 1016.99 1017.17 1017.23 1016.85 1016.58 1016.11 1015.92 1015.84 1015.43 1014.80 1014.64 1014.47 1014.04 1013.77 1013.65 1013.70 1014.11 1014.37 1014.65 1014.83
1021.73 1022.02 1021.05 1020.29 1019.89 1019.92 1020.03 1021.12 1022.00 1023.02 1024.29 1024.37 1023.00 1020.57 1017.85 1017.32 1017.15 1016.94 1016.79 1017.11 1017.14 1017.38 1017.49 1017.48 1017.53 1017.48 1017.14 1016.87 1016.74 1016.59 1016.26 1016.03 1015.55 1014.91 1014.78 1014.58 1014.15 1013.97 1013.99 1014.16 1014.43 1014.52 1014.71 1014.39
1022.28 1023.11 1023.15 1022.03 1020.85 1020.42 1020.75 1021.64 1022.81 1024.33 1025.00 1024.96 1023.72 1020.24 1017.81 1017.71 1017.12 1017.24 1017.54 1017.64 1017.76 1017.76 1017.92 1017.92 1017.74 1017.53 1017.27 1017.03 1016.63 1016.25 1015.97 1015.73 1015.33 1014.90 1014.78 1014.66 1014.45 1014.38 1014.48 1014.53 1014.64 1014.75 1014.84 1014.84
1022.53 1023.63 1023.99 1022.74 1021.91 1021.28 1021.78 1021.46 1022.88 1024.08 1024.75 1024.64 1023.66 1020.19 1017.85 1017.84 1017.87 1017.91 1018.31 1018.33 1018.40 1018.46 1018.33 1017.95 1017.44 1016.98 1016.83 1016.60 1016.21 1015.88 1015.80 1015.56 1015.11 1014.77 1014.70 1014.60 1014.65 1014.65 1014.63 1014.51 1014.50 1014.48 1014.57 1014.72
1022.84 1024.01 1024.59 1024.48 1023.86 1023.63 1022.92 1021.76 1022.49 1023.47 1024.14 1023.37 1021.96 1020.24 1019.21 1018.76 1018.68 1018.93 1018.96 1018.82 1018.54 1018.27 1017.93 1017.70 1017.34 1017.06 1016.81 1016.62 1016.28 1016.04 1015.87 1015.58 1015.13 1014.59 1014.51 1014.93 1014.92 1014.93 1014.91 1014.88 1014.72 1014.61 1014.60 1014.55
1023.65 1024.79 1024.92 1024.51 1024.10 1023.77 1022.77 1022.40 1022.44 1022.73 1022.22 1022.73 1021.01 1020.42 1019.67 1019.55 1019.41 1019.10 1018.72 1018.47 1018.11 1017.79 1017.69 1017.41 1017.02 1016.78 1016.50 1016.36 1016.16 1015.88 1015.79 1015.52 1014.99 1014.44 1014.30 1014.66 1014.81 1014.96 1014.93 1014.99 1015.05 1014.99 1014.57 1014.41
1024.40 1025.20 1025.73 1025.07 1024.52 1024.18 1022.70 1022.09 1021.88 1021.89 1021.63 1021.26 1020.87 1020.36 1019.95 1019.80 1019.63 1019.25 1018.76 1018.18 1017.91 1017.71 1017.27 1016.71 1016.62 1016.48 1016.37 1016.29 1016.09 1015.85 1015.65 1015.24 1014.93 1014.76 1014.70 1014.62 1014.73 1014.91 1015.03 1015.17 1015.04 1014.54 1014.55 1014.58
1025.49 1026.15 1026.88 1026.20 1025.41 1024.56 1022.59 1020.86 1020.85 1020.84 1020.62 1020.77 1020.69 1020.08 1019.95 1019.72 1019.55 1019.15 1018.55 1018.01 1017.61 1017.35 1016.99 1016.76 1016.68 1016.51 1016.27 1016.03 1015.95 1015.84 1015.52 1015.14 1014.85 1015.01 1015.17 1015.03 1014.89 1015.00 1014.56 1014.64 1014.57 1014.65 1014.89 1014.82
1025.50 1026.79 1027.43 1027.15 1026.25 1024.88 1021.13 1020.07 1019.76 1020.01 1019.91 1019.79 1019.84 1019.81 1019.78 1019.29 1018.77 1018.71 1018.30 1017.89 1017.66 1017.21 1016.73 1016.62 1016.60 1016.57 1016.38 1016.22 1016.03 1015.83 1015.44 1015.05 1014.97 1015.05 1015.14 1015.14 1015.21 1015.20 1015.18 1015.18 1015.13 1015.14 1014.90 1014.89
1025.33 1026.91 1027.73 1027.60 1026.56 1024.02 1021.40 1019.65 1019.37 1019.42 1019.46 1019.41 1019.78 1019.49 1019.06 1018.68 1018.30 1018.12 1017.44 1017.55 1017.37 1016.94 1016.54 1016.47 1016.74 1016.67 1016.35 1016.13 1015.79 1015.74 1015.59 1015.11 1015.16 1015.32 1015.42 1015.50 1015.53 1015.59 1015.46 1015.45 1015.17 1015.12 1015.17 1015.10
1026.21 1026.70 1027.40 1027.71 1026.79 1024.13 1020.49 1019.25 1018.78 1018.93 1019.23 1019.02 1019.24 1019.00 1018.71 1018.57 1018.47 1017.54 1017.45 1017.63 1017.13 1017.02 1017.03 1016.82 1016.62 1016.48 1016.38 1016.11 1015.58 1015.88 1016.09 1016.09 1015.94 1015.74 1015.66 1015.60 1015.74 1015.85 1015.65 1015.54 1015.46 1015.43 1015.34 1015.19
1026.65 1027.39 1027.45 1026.92 1025.81 1023.15 1019.91 1019.11 1018.79 1019.44 1019.04 1018.73 1018.79 1018.42 1018.19 1018.32 1018.13 1017.62 1017.71 1017.50 1016.87 1017.06 1017.02 1016.77 1016.62 1016.60 1016.35 1016.12 1016.01 1016.47 1016.59 1016.51 1016.30 1016.01 1015.93 1016.00 1015.93 1015.80 1015.71 1015.73 1015.70 1015.60 1015.48 1015.40
1025.87 1026.47 1026.43 1025.68 1024.68 1021.83 1019.52 1019.13 1019.77 1019.24 1018.49 1018.38 1017.80 1017.79 1017.81 1017.80 1017.72 1017.78 1017.56 1017.36 1017.43 1017.33 1017.09 1016.74 1016.40 1016.58 1016.36 1016.25 1016.23 1016.51 1016.50 1016.24 1016.30 1016.20 1016.29 1016.27 1016.17 1016.09 1016.00 1015.96 1015.78 1015.70 1015.75 1015.74
1024.71 1024.20 1023.72 1023.49 1021.63 1019.66 1019.19 1018.88 1018.67 1018.47 1018.15 1017.71 1017.81 1017.71 1017.89 1018.30 1017.95 1018.19 1017.73 1017.50 1017.34 1017.53 1017.30 1017.02 1016.59 1016.13 1015.95 1016.48 1016.43 1016.12 1016.54 1016.54 1016.57 1016.57 1016.55 1016.49 1016.42 1016.33 1016.20 1016.12 1015.96 1015.96 1015.93 1015.77
1023.24 1022.54 1022.31 1022.23 1019.57 1018.93 1018.82 1018.20 1017.98 1017.87 1017.95 1017.93 1018.07 1018.01 1018.10 1017.78 1018.14 1017.84 1017.90 1017.87 1017.29 1017.26 1017.08 1016.98 1016.66 1016.23 1015.89 1016.15 1016.65 1016.53 1016.65 1016.70 1016.72 1016.73 1016.74 1016.73 1016.73 1016.54 1016.34 1016.19 1016.08 1016.08 1015.91 1015.72
1022.12 1021.89 1021.07 1020.39 1019.21 1018.27 1018.32 1017.86 1017.87 1017.92 1018.16 1018.28 1018.05 1017.99 1018.01 1017.75 1017.33 1017.73 1017.76 1017.45 1017.15 1017.09 1017.09 1017.06 1016.83 1016.93 1016.60 1016.51 1016.68 1016.53 1016.61 1016.71 1016.81 1016.90 1016.93 1016.95 1016.89 1016.78 1016.57 1016.33 1016.11 1015.91 1015.68 1015.44
1020.55 1019.85 1020.03 1018.22 1017.85 1017.91 1017.13 1017.63 1017.86 1018.11 1018.48 1018.07 1018.59 1018.46 1017.76 1016.96 1016.99 1017.38 1017.52 1017.18 1016.82 1016.82 1016.95 1016.95 1016.86 1016.62 1016.50 1016.56 1016.53 1016.50 1016.56 1016.66 1016.81 1016.93 1016.97 1016.99 1016.97 1016.88 1016.74 1016.50 1016.13 1015.73 1015.45 1015.04
Wind_Speed
4 8 2 4 2 4 1 3 3 4 3 8 6 8 14 5 5 8 8 9 7 6 0 6 8 10 10 8 8 7 6 5 3 1 1 2 4 3 4 5 8 7 7 7
8 3 2 4 5 4 6 3 4 7 6 3 9 12 7 6 3 7 11 9 9 6 6 7 6 3 4 7 7 7 7 6 5 3 4 4 4 4 4 3 6 8 9 8
5 2 2 5 6 7 3 2 4 6 8 3 5 7 6 4 4 5 4 6 6 8 8 6 5 6 4 6 8 8 8 8 8 8 2 2 1 3 2 4 4 8 11 11
1 3 4 6 2 3 4 4 5 6 4 3 4 4 4 3 2 2 4 5 6 7 4 2 4 5 7 9 5 6 7 8 7 7 5 8 8 9 9 9 5 6 11 12
5 2 4 4 3 3 8 7 8 4 4 3 10 3 6 4 4 6 4 6 5 4 5 4 3 3 7 6 7 7 6 6 8 5 7 6 9 10 9 4 7 7 7 9
3 1 3 1 4 1 6 7 5 4 3 4 3 2 5 5 5 5 3 3 5 4 3 5 4 3 3 4 2 3 5 7 8 8 9 8 10 13 7 9 7 4 3 2
7 5 4 2 5 7 8 6 6 8 7 5 5 5 3 1 7 9 8 4 3 6 6 4 5 4 5 5 6 4 4 7 7 7 9 9 11 11 11 11 6 4 4 5
5 8 7 6 2 2 4 5 5 2 0 6 8 1 3 5 1 4 6 8 6 1 4 1 6 6 6 7 8 7 7 8 10 8 10 7 7 5 5 5 2 3 5 5
5 5 5 4 4 3 5 4 1 5 2 4 5 5 9 4 8 6 2 3 6 8 7 8 6 6 7 7 6 7 8 10 10 10 5 4 3 3 3 5 6 6 9 8
3 5 2 6 4 3 3 1 6 5 3 4 6 7 7 7 14 14 5 3 7 6 8 7 6 5 2 3 4 6 9 11 10 8 3 1 3 4 5 6 7 7 6 6
2 2 8 4 3 2 6 4 4 1 4 3 3 7 5 11 10 11 5 5 5 5 5 5 5 5 6 6 6 7 7 7 7 6 3 5 4 4 5 6 6 6 4 5
3 4 4 6 9 2 2 3 6 4 5 4 3 11 13 7 14 7 5 4 5 4 4 4 2 5 7 7 6 6 6 6 6 5 6 6 4 5 6 6 7 6 5 3
0 2 4 9 7 9 4 8 4 3 2 6 4 8 10 18 7 6 7 6 6 1 2 3 5 7 7 7 7 7 6 6 7 5 7 6 6 5 6 5 5 5 4 2
6 3 6 6 6 4 10 15 10 4 3 6 15 16 19 12 7 4 4 6 3 2 4 6 7 7 7 7 7 6 5 6 7 7 4 3 2 3 3 4 3 2 1 3
4 6 4 7 8 5 17 17 16 11 15 6 10 11 12 4 2 6 5 6 6 7 7 7 7 6 6 7 7 5 6 6 5 2 4 4 4 3 3 1 3 7 6 4
3 5 4 12 7 8 19 15 13 14 14 10 9 14 2 6 6 7 6 10 10 7 9 11 9 8 9 8 6 5 6 7 6 2 4 4 4 4 5 6 9 8 4 3
3 4 3 7 5 5 11 9 6 6 7 7 6 7 3 6 9 11 16 14 9 8 13 12 10 9 7 5 5 7 6 6 3 2 1 3 5 6 10 6 5 4 2 2
5 4 2 4 2 5 11 6 7 6 8 6 3 5 7 6 8 8 10 10 8 12 14 13 9 6 5 5 7 7 5 4 4 3 4 4 3 4 5 5 3 2 2 4
5 5 2 1 3 7 12 11 2 2 9 5 5 7 7 9 9 6 5 6 12 16 13 8 5 4 5 7 7 5 7 6 6 7 6 5 6 6 3 4 6 4 4 4
6 5 5 2 4 6 10 5 3 3 7 7 4 7 9 5 10 11 3 12 16 11 4 5 6 5 6 7 5 7 6 6 6 5 5 4 4 4 4 4 5 3 3 4
3 2 3 1 6 10 9 7 1 5 9 5 6 12 13 7 7 10 8 12 4 1 4 6 5 6 5 4 6 5 4 4 3 4 4 4 4 5 5 4 3 4 5 4
6 3 5 3 3 10 0 4 3 8 4 12 16 10 6 6 6 5 10 8 4 6 7 6 4 4 4 4 6 4 2 3 4 5 5 5 5 5 4 5 5 5 4 3
4 9 6 10 10 4 4 12 6 8 16 11 5 3 3 7 8 10 5 3 4 6 6 6 4 3 3 4 4 2 3 4 4 4 5 5 5 4 4 5 5 3 2 2
4 4 6 7 7 11 11 19 18 10 6 4 4 5 5 3 7 8 4 5 4 4 5 4 6 5 4 2 3 4 2 3 4 4 5 4 5 5 5 4 3 2 3 3
7 5 5 14 18 19 15 13 6 5 3 3 3 6 5 5 11 4 5 5 5 5 4 4 5 6 5 3 3 3 2 2 3 3 3 4 3 4 4 4 3 2 4 3
7 15 8 16 16 13 16 4 4 6 8 11 7 10 14 10 7 6 6 6 3 4 3 6 5 3 4 5 5 4 3 1 0 3 3 2 3 3 3 4 4 8 7 10
Wind_Direction
5 67 76 283 297 263 110 21 331 285 264 358 291 286 278 180 119 100 103 113 117 114 259 67 104 126 128 137 140 151 163 199 148 168 187 232 232 230 238 213 212 215 209 208
27 95 252 305 29 41 42 31 316 285 306 328 305 299 316 117 167 157 140 132 123 103 85 106 113 119 150 163 168 177 198 203 204 185 203 188 193 223 223 217 207 214 215 208
128 222 21 63 25 14 326 161 276 252 322 330 335 351 358 355 89 129 114 135 130 129 122 128 148 179 175 192 201 206 210 211 221 222 227 245 316 297 264 244 228 212 204 212
142 355 48 35 67 43 306 243 282 290 38 300 48 274 287 265 1 90 101 120 103 84 71 111 175 181 211 232 241 241 233 232 234 228 224 216 231 237 237 235 218 221 204 211
260 56 61 50 292 297 254 303 276 293 162 87 341 56 271 86 231 226 66 73 82 137 133 141 161 189 224 243 238 246 270 287 273 250 233 235 245 248 253 243 223 223 221 212
255 103 78 240 292 96 284 311 3 30 91 50 256 144 309 308 283 69 69 149 142 142 191 180 140 139 76 28 6 338 302 293 294 293 277 241 243 255 251 250 233 207 165 129
346 3 322 10 11 352 15 31 2 13 12 227 322 19 259 287 107 141 174 163 205 214 217 249 235 95 90 53 42 36 5 310 302 296 287 274 257 256 255 255 241 165 137 103
35 334 14 343 62 301 332 89 131 221 348 281 327 2 229 174 105 113 136 178 198 174 219 311 76 76 33 31 29 5 14 333 319 302 293 297 288 268 263 272 182 121 108 92
15 295 332 36 313 114 327 29 153 106 5 44 281 285 323 247 69 91 149 258 50 23 24 70 85 50 28 21 355 347 336 325 323 316 313 321 349 30 98 85 90 104 109 111
321 305 303 298 350 10 79 247 31 7 30 290 301 295 244 321 337 347 2 325 58 62 53 40 54 58 344 256 281 335 343 326 318 310 282 286 114 122 115 104 108 104 110 114
35 80 292 344 47 29 352 21 17 137 132 213 265 265 236 315 321 305 53 57 99 67 74 84 54 13 344 313 304 298 287 299 316 305 239 224 190 142 118 111 109 110 119 137
334 125 288 282 293 255 134 109 100 95 321 271 230 267 274 283 330 94 88 57 29 55 69 42 335 289 294 283 283 305 309 328 328 289 236 225 187 143 120 117 117 115 107 105
207 351 357 348 347 11 2 298 122 160 116 227 207 264 327 316 343 65 45 353 317 188 253 279 294 323 308 315 316 317 317 320 312 271 235 214 186 160 147 142 133 128 149 190
102 163 166 200 213 194 286 288 303 171 172 245 253 287 295 317 82 0 301 286 292 265 314 297 304 299 289 287 287 310 316 320 315 310 235 263 170 147 138 137 137 142 234 251
113 202 231 234 237 248 267 281 291 279 258 227 275 274 311 108 291 276 267 294 271 250 263 274 285 295 298 308 299 308 316 308 300 316 144 135 141 140 151 78 22 331 279 280
4 268 169 287 246 235 259 274 265 269 276 263 269 286 225 288 286 316 283 309 304 266 291 318 311 311 301 292 304 315 301 301 304 194 140 128 103 101 54 344 252 252 292 330
224 167 96 263 36 13 301 240 212 220 253 261 258 247 305 304 320 323 315 313 293 305 312 307 289 274 274 278 281 291 300 304 31 93 209 222 205 199 227 254 282 347 328 6
179 106 119 256 42 196 249 278 261 274 263 253 243 252 255 248 295 296 283 283 293 307 303 296 285 296 309 294 295 291 292 311 274 329 322 331 338 337 354 355 360 347 349 336
161 129 174 205 216 283 291 273 224 228 268 192 234 286 305 310 305 271 271 288 301 294 288 298 302 299 300 291 284 305 330 316 68 61 64 46 32 2 340 340 1 345 353 333
66 72 126 178 250 271 234 242 245 313 286 202 276 286 282 308 300 314 322 342 309 314 332 358 325 302 300 316 36 68 61 50 42 26 25 20 8 11 13 358 357 327 312 323
349 347 217 195 240 282 255 256 144 74 276 235 264 281 286 260 268 308 340 311 317 121 343 324 318 309 305 330 58 68 74 68 18 3 14 26 12 358 10 358 334 323 337 5
178 179 229 226 238 269 201 24 123 237 262 295 307 283 259 262 273 306 276 287 3 347 335 319 332 317 348 78 109 138 117 51 23 21 14 357 350 351 360 354 334 352 24 5
242 197 211 183 220 219 230 292 239 269 306 302 280 290 293 303 337 303 339 269 280 316 302 303 291 290 359 181 222 163 51 38 29 20 356 348 355 354 345 345 347 18 339 299
265 245 243 338 259 273 305 293 291 303 277 360 340 309 312 320 279 245 289 284 292 292 304 301 316 299 283 153 93 112 96 47 41 0 346 348 349 341 342 350 356 307 295 296
187 195 225 256 271 279 272 270 290 313 58 354 321 318 328 275 263 250 270 287 282 301 328 341 18 322 299 152 206 180 149 92 24 353 335 329 328 338 331 326 287 279 278 237
197 244 230 258 262 264 283 335 19 40 20 52 7 314 283 265 235 246 269 263 281 312 358 316 293 261 208 219 226 210 193 179 56 329 317 288 296 307 312 309 310 319 336 334